Retour au catalogue

METEOSAT 4 AKM

ActifMEO
NORAD 20800·ROCKET BODY·🇪🇺 EU

Lancé Mar 6, 1989 depuis Guiana Space Centre

Loading…

Prochains Passages (prochaines 24 heures)

TLE

FraisSource: Space-Track

Époque: Sep 14, 2026, 13:55 UTC

1 20800U 89020E   26257.58026372 -.00000149  00000-0  00000-0 0  9999
2 20800  10.8888 330.7955 0132807 257.9380 137.7080  1.00426363117103

Suivez METEOSAT 4 AKM en temps réel avec AllMySat

Download on the App Store